DW6005 Weather Reports


time (UTC)temp
F
wind
direction
speed
knots
gust
knots
rain 1hr
in
rain 24hr
in
rain mn
in
humidity
%
barometer
mb
20260508090038 57 285 0.9 3.5 0.00 0.01 0.00 85 1014.6
20260508084532 57 286 1.7 5.2 0.00 0.02 0.00 84 1014.2
20260508083030 57 289 1.7 3.5 0.00 0.02 0.00 84 1013.9
20260508081530 57 257 0.0 6.1 0.00 0.02 0.00 84 1013.9
20260508080050 57 285 0.9 3.5 0.00 0.02 0.00 83 1013.5
20260508074527 57 281 0.9 2.6 0.00 0.02 0.00 84 1013.4
20260508073026 57 239 0.9 2.6 0.00 0.02 0.00 85 1013.2
20260508071525 57 238 0.0 3.5 0.00 0.02 0.00 86 1013.0
20260508070025 56 237 0.0 2.6 0.00 0.02 0.00 87 1012.9
20260508064538 55 278 0.0 1.7 0.00 0.02 0.00 87 1012.9
20260508063023 55 278 0.0 3.5 0.00 0.02 0.00 87 1012.7
20260508061523 54 275 0.9 3.5 0.00 0.02 0.00 87 1012.7
20260508060019 54 263 0.0 0.9 0.00 0.02 0.00 87 1012.5
20260508054532 54 263 0.0 1.7 0.00 0.02 0.00 87 1012.1
20260508053012 53 281 0.0 1.7 0.00 0.02 0.00 87 1012.0
20260508051512 54 281 0.0 2.6 0.00 0.02 0.00 87 1012.1
20260508050010 54 281 0.0 1.7 0.00 0.02 0.00 87 1012.0
20260508044510 54 281 0.9 5.2 0.00 0.02 0.00 87 1011.7
20260508043008 54 265 1.7 6.1 0.00 0.02 0.00 88 1011.9
20260508041507 54 287 0.9 3.5 0.00 0.02 0.00 88 1011.8
20260508040027 53 298 1.7 6.1 0.00 0.02 0.00 89 1011.8
20260508034506 53 265 0.0 3.5 0.00 0.02 0.00 89 1011.7
20260508033006 53 279 0.0 2.6 0.00 0.02 0.00 89 1011.4
20260508031508 54 291 0.9 3.5 0.00 0.02 0.00 89 1011.7
20260508030100 54 292 0.0 4.3 0.00 0.02 0.00 89 1012.0
20260508024558 54 317 0.9 2.6 0.00 0.02 0.00 88 1012.1
20260508023057 54 113 0.0 1.7 0.00 0.02 0.00 89 1012.0
20260508021557 54 111 0.0 0.0 0.00 0.02 0.00 88 1012.1
20260508020058 54 111 0.0 0.0 0.00 0.02 0.00 88 1012.2
20260508014554 54 111 0.0 0.0 0.00 0.02 0.00 88 1012.1
20260508013051 54 111 0.0 2.6 0.00 0.02 0.00 88 1012.4
20260508011549 55 110 0.0 0.0 0.00 0.02 0.00 88 1012.5
20260508010048 55 110 0.0 0.0 0.00 0.02 0.00 87 1012.6
20260508004550 55 111 0.0 0.0 0.00 0.02 0.00 87 1012.7
20260508003048 56 110 0.0 0.9 0.00 0.02 0.00 87 1013.0
20260508001541 56 110 0.0 1.7 0.00 0.02 0.00 87 1013.2
20260508000039 56 111 0.0 0.9 0.00 0.02 0.00 87 1013.3
20260507234547 56 111 0.0 1.7 0.00 0.02 0.00 87 1013.2
20260507233039 56 110 0.0 1.7 0.00 0.02 0.00 86 1013.5
20260507231533 56 111 0.0 0.0 0.00 0.02 0.00 87 1013.5
20260507230032 57 110 0.0 0.9 0.00 0.02 0.00 86 1013.7
20260507224531 57 111 0.0 0.0 0.00 0.02 0.00 86 1013.7
20260507223029 57 111 0.0 0.0 0.00 0.02 0.00 86 1013.6
20260507221532 57 111 0.0 0.9 0.00 0.02 0.00 85 1013.6
20260507220035 57 111 0.0 0.9 0.00 0.02 0.00 85 1013.5
20260507214522 57 110 0.0 0.0 0.00 0.02 0.02 85 1013.3
20260507213027 58 111 0.0 3.5 0.00 0.02 0.02 84 1013.2
20260507211519 58 110 1.7 3.5 0.00 0.02 0.02 84 1013.1
20260507210025 58 101 1.7 5.2 0.00 0.02 0.02 83 1012.9
20260507204515 59 117 0.9 6.1 0.00 0.02 0.02 82 1012.9
20260507203016 59 129 3.5 8.7 0.00 0.02 0.02 82 1012.8
20260507201512 60 112 2.6 6.1 0.00 0.02 0.02 82 1012.7
20260507200012 60 110 2.6 5.2 0.00 0.02 0.02 82 1012.6
20260507194523 60 114 1.7 7.0 0.00 0.02 0.02 81 1012.4
20260507193007 61 118 2.6 7.0 0.00 0.02 0.02 80 1012.0
20260507191504 61 116 1.7 5.2 0.00 0.02 0.02 79 1011.7
20260507190004 62 115 3.5 6.1 0.00 0.02 0.02 78 1011.5
20260507184501 62 117 1.7 7.0 0.00 0.02 0.02 76 1011.4
20260507183117 63 113 2.6 7.8 0.00 0.02 0.02 75 1011.1
20260507181606 64 79 2.6 8.7 0.00 0.02 0.02 69 1010.8
20260507180105 64 84 3.5 11.3 0.00 0.02 0.02 70 1010.7
20260507174604 64 53 3.5 10.4 0.00 0.02 0.02 72 1010.7
20260507173110 63 344 2.6 9.6 0.00 0.02 0.02 73 1010.8
20260507171557 62 304 3.5 10.4 0.00 0.02 0.02 76 1010.8
20260507170058 63 333 5.2 10.4 0.00 0.02 0.02 76 1010.8
20260507164630 63 321 3.5 8.7 0.00 0.02 0.02 71 1010.5
20260507163058 64 350 4.3 8.7 0.00 0.02 0.02 71 1010.4
20260507161600 64 342 3.5 7.8 0.00 0.02 0.02 71 1010.3
20260507160054 64 308 2.6 7.0 0.00 0.02 0.02 74 1010.2
20260507154557 63 44 0.0 2.6 0.00 0.02 0.02 77 1010.2
20260507153056 63 44 1.7 5.2 0.00 0.02 0.02 77 1010.3
20260507151552 64 340 4.3 7.0 0.00 0.02 0.02 77 1010.3
20260507150053 64 336 2.6 5.2 0.00 0.02 0.02 78 1010.3
20260507144550 63 328 3.5 8.7 0.00 0.02 0.02 81 1010.1
20260507143049 63 355 0.9 4.3 0.00 0.02 0.02 81 1010.1
20260507141549 63 75 0.9 6.1 0.01 0.02 0.02 83 1010.2
20260507140047 64 188 0.9 7.0 0.01 0.02 0.02 83 1010.2
20260507134548 64 174 1.7 6.1 0.01 0.02 0.02 82 1010.2
20260507133145 64 250 0.9 5.2 0.01 0.02 0.02 82 1010.3
20260507131543 65 202 2.6 8.7 0.00 0.01 0.01 79 1010.2
20260507130043 66 170 1.7 7.0 0.00 0.01 0.01 77 1010.3
20260507124547 66 138 0.0 2.6 0.00 0.01 0.01 77 1010.4
20260507123043 66 138 0.0 2.6 0.00 0.01 0.01 77 1010.6
20260507121542 66 117 1.7 7.8 0.00 0.01 0.01 75 1010.8
20260507120040 66 128 3.5 10.4 0.00 0.01 0.01 73 1010.8
20260507114556 67 132 4.3 8.7 0.00 0.01 0.01 72 1010.8
20260507113101 66 98 2.6 8.7 0.00 0.01 0.01 72 1010.8
20260507111541 66 115 7.0 11.3 0.00 0.01 0.01 72 1011.0
20260507110033 66 111 6.1 10.4 0.00 0.01 0.01 73 1011.1
20260507104539 65 126 5.2 10.4 0.00 0.01 0.01 74 1011.4
20260507103131 66 109 5.2 9.6 0.00 0.01 0.01 73 1011.3
20260507101530 66 132 6.1 13.9 0.00 0.01 0.01 71 1011.2
20260507100029 66 107 6.1 12.2 0.00 0.01 0.01 71 1011.0
20260507094528 67 111 6.1 11.3 0.01 0.01 0.01 72 1011.1
20260507093028 66 111 4.3 12.2 0.01 0.01 0.01 74 1011.2
20260507091523 65 132 3.5 7.8 0.01 0.01 0.01 76 1011.4